Temperature
29 30 30 29 29 29 29 29 29 29 29 28 27 27 25 24 23 23 22 22 21 21 20 20 20 20 19 19 19 19 19 19 18 18 18 18 18 17 17 17 17 17 17 17
28 29 29 29 29 29 28 29 29 29 28 28 27 25 24 23 23 22 22 21 21 20 20 20 19 19 19 19 19 19 18 18 18 18 18 17 17 17 17 17 17 17 16 16
28 28 28 28 28 28 28 28 28 28 28 27 26 25 24 23 22 22 21 21 20 20 20 19 19 19 19 19 18 18 18 18 17 17 17 17 17 17 16 16 16 16 16 16
27 27 26 28 28 28 28 27 27 27 27 26 25 24 23 22 22 21 21 20 20 20 19 19 19 19 18 18 18 18 18 17 17 17 17 16 16 16 16 16 16 16 16 16
26 26 27 27 27 27 27 26 27 26 26 25 24 23 23 21 21 20 20 19 19 19 19 19 18 18 18 18 18 17 17 17 16 16 16 16 16 16 16 15 15 15 15 15
26 25 26 27 26 26 26 26 26 25 25 24 24 25 24 21 20 20 19 19 18 18 18 18 18 18 18 17 17 17 16 16 16 16 16 15 15 15 15 15 15 15 15 15
25 25 26 25 25 25 25 25 24 24 24 23 24 24 22 20 19 19 18 18 18 17 17 17 17 17 17 16 16 16 16 16 16 15 15 15 15 15 15 14 14 14 14 14
25 25 25 24 24 25 24 23 23 22 22 22 22 21 20 19 18 18 18 17 17 17 16 16 16 16 16 16 16 15 15 15 15 15 15 15 14 14 14 14 14 14 14 14
25 24 22 21 22 21 21 21 21 21 21 21 20 20 19 18 18 17 17 17 16 16 16 16 16 15 15 15 15 15 15 14 14 14 14 14 14 14 14 14 14 14 14 14
22 23 21 21 20 20 20 20 20 20 20 20 19 19 19 18 17 17 16 16 16 15 15 15 15 15 15 15 14 14 14 14 14 14 14 14 13 13 13 13 13 13 13 13
21 22 21 20 19 19 19 19 19 19 19 19 18 18 18 17 16 16 16 15 15 15 15 14 14 14 14 14 14 14 13 13 13 13 13 13 13 13 12 12 12 12 12 12
22 21 21 20 18 18 18 18 18 18 18 18 17 17 17 16 16 15 15 15 15 14 14 14 14 14 13 13 13 13 13 13 13 13 13 12 12 12 12 12 12 12 12 11
19 19 18 18 18 17 17 17 17 17 17 17 16 16 16 16 15 15 15 15 14 14 14 13 13 13 13 13 13 12 12 12 12 12 12 12 12 12 12 12 11 11 11 11
17 17 17 17 17 17 17 17 16 16 16 16 16 15 15 15 15 15 14 14 14 13 13 13 13 13 13 12 12 12 12 12 12 12 12 12 12 12 11 11 11 11 11 11
16 16 17 17 16 16 16 16 16 16 15 15 15 15 15 14 14 14 14 14 13 13 13 13 12 12 12 12 12 11 11 12 11 11 11 11 11 11 11 11 11 11 11 11
16 16 16 16 16 16 16 16 16 16 15 15 14 14 14 14 13 13 13 13 13 13 12 12 12 12 11 11 11 11 11 11 11 11 11 11 11 11 11 11 11 11 10 10
15 16 16 16 16 16 16 15 15 15 15 14 14 14 13 13 13 13 13 13 12 12 12 12 11 11 11 11 11 11 11 11 10 10 11 10 10 10 10 10 10 10 10 10
15 15 15 15 15 15 15 15 15 14 14 14 13 13 13 13 13 12 12 12 12 12 11 11 11 11 11 11 10 10 10 10 10 10 10 10 10 10 10 10 10 10 10 10
15 15 15 14 14 14 14 14 14 14 13 13 13 13 13 12 12 12 12 11 11 11 11 11 11 11 10 10 10 10 10 10 10 10 10 9 9 9 9 9 9 9 9 9
14 14 14 14 14 14 14 13 13 13 13 13 12 12 12 12 11 11 11 11 11 11 11 10 10 10 10 10 10 10 10 10 9 9 9 9 9 9 9 9 9 9 9 9
13 13 13 13 13 13 13 13 13 13 12 12 12 12 11 11 11 11 11 11 11 10 10 10 10 9 9 10 9 9 9 9 9 9 9 9 9 9 9 9 9 8 8 8
13 13 13 13 13 13 12 12 12 12 12 12 11 11 11 11 11 10 10 10 10 10 10 10 9 9 9 9 9 9 9 9 9 9 9 9 9 8 8 8 8 8 8 8
12 12 12 12 12 12 12 12 12 12 11 11 11 11 11 11 11 11 10 10 10 10 10 9 9 9 9 9 9 9 9 8 8 8 8 8 8 8 8 8 7 7 7 7
12 12 12 12 12 12 12 12 11 11 11 11 11 11 10 10 10 10 10 10 10 10 9 9 9 9 9 8 8 8 8 8 8 8 8 8 8 7 7 7 7 7 7 7
11 11 11 11 11 12 11 11 11 11 11 11 11 10 10 10 10 10 10 10 9 9 9 9 9 9 8 8 8 8 8 8 8 8 7 7 7 7 7 7 7 6 6 6
11 11 11 11 11 11 11 11 11 11 11 11 11 10 10 10 10 10 10 9 9 9 9 9 8 8 8 8 8 8 7 7 7 7 7 7 7 7 6 6 6 6 6 6
11 11 11 11 11 11 11 11 11 11 11 11 11 11 10 10 10 10 9 9 9 9 9 8 8 8 8 8 7 7 7 7 7 7 7 6 6 6 6 6 6 6 6 6
Wind_Speed
12 9 9 11 12 12 14 13 13 11 10 7 5 4 2 2 3 3 3 4 3 4 4 4 4 4 4 4 4 4 4 4 4 3 3 3 3 3 3 4 4 3 4 4
12 12 11 13 13 13 14 13 13 12 9 4 3 3 3 3 4 4 3 3 3 3 3 3 3 3 3 3 3 4 3 3 3 3 3 3 2 2 3 3 3 3 4 4
13 11 12 15 12 12 11 11 11 12 7 3 5 5 4 4 4 4 3 3 3 3 3 3 3 3 3 3 4 4 4 4 3 3 3 3 3 2 3 3 3 4 4 5
10 10 15 8 4 8 10 9 8 7 5 6 5 4 4 4 4 3 3 3 3 3 3 2 2 2 2 2 3 3 3 3 3 3 3 3 3 3 3 3 3 4 5 5
10 13 13 7 5 7 9 9 6 6 5 5 4 5 5 3 3 3 3 3 3 2 3 2 2 2 2 2 2 2 2 2 2 2 2 3 3 3 3 4 4 5 5 5
10 13 13 6 4 3 7 9 5 6 6 7 7 6 3 4 4 3 3 3 3 3 3 3 2 1 1 1 1 2 2 2 2 2 3 3 3 4 4 4 5 5 5 5
13 13 10 2 3 4 9 4 3 4 5 7 7 3 3 4 4 4 4 3 3 3 3 2 2 1 1 0 0 1 1 1 2 2 3 3 3 3 4 4 4 4 5 4
11 13 8 4 4 4 3 3 2 4 5 5 4 3 4 5 4 4 4 4 4 3 2 2 2 2 1 1 1 1 1 1 1 2 3 2 3 3 4 4 4 4 4 5
6 4 2 0 2 3 3 3 3 4 4 4 5 4 4 5 5 4 4 4 3 3 3 2 2 1 1 1 1 1 1 1 2 2 2 3 3 3 4 4 4 4 4 5
4 2 1 1 2 3 3 3 3 3 3 4 4 4 4 4 4 4 4 3 3 3 2 2 1 1 1 1 1 1 1 2 3 3 3 3 3 4 4 4 4 4 5 5
6 3 2 2 1 1 2 1 1 1 2 3 4 4 4 3 3 3 3 3 3 3 2 2 1 0 1 1 1 2 2 3 3 3 3 3 3 2 3 3 3 5 5 6
5 2 3 2 2 2 1 1 0 1 1 2 3 3 3 3 3 3 3 3 3 3 2 2 1 1 1 2 2 3 3 3 3 3 3 3 3 2 0 2 1 2 4 6
3 3 3 3 2 1 1 0 0 0 1 1 2 2 3 3 3 3 3 3 3 3 2 2 2 2 2 2 3 3 4 3 3 4 3 3 3 3 4 3 5 5 5 5
2 2 3 3 2 1 1 1 1 0 1 1 1 2 2 2 3 3 3 3 3 3 3 3 3 2 2 3 3 3 4 3 4 4 4 4 4 4 4 5 5 4 4 5
4 4 4 2 2 2 2 2 1 1 1 1 1 1 2 2 3 3 3 3 3 3 3 3 3 3 3 3 3 4 4 4 3 4 4 4 4 5 5 6 6 6 5 3
4 4 4 4 4 3 3 3 2 2 1 1 1 1 1 2 2 2 2 3 3 3 3 3 3 3 3 4 4 5 4 4 5 5 5 5 5 5 5 6 6 6 5 5
4 5 5 5 5 4 4 3 3 2 1 1 1 1 1 2 2 2 2 2 2 3 3 3 3 3 3 4 5 5 4 4 6 6 5 5 5 5 6 6 6 5 5 3
5 5 5 5 4 4 4 3 2 2 2 2 2 2 2 2 2 2 2 2 2 3 3 3 3 3 4 4 5 5 5 5 5 5 5 5 5 5 6 6 6 6 6 4
3 3 3 3 4 3 3 2 2 1 2 2 2 2 2 2 2 2 2 3 4 4 3 3 2 4 4 4 4 5 5 6 5 5 5 5 6 6 6 6 6 6 6 5
0 1 1 2 2 3 2 2 2 1 2 2 2 2 2 2 2 3 3 4 3 3 2 3 4 4 4 4 5 5 5 6 6 5 5 5 6 5 5 6 6 6 5 5
1 2 2 2 2 2 2 2 2 2 2 2 2 2 3 3 3 3 4 4 2 2 3 3 4 4 4 3 6 5 5 5 5 5 5 5 5 6 6 6 5 5 5 5
1 1 1 1 1 1 1 1 2 2 2 2 2 3 3 3 4 4 5 4 3 2 3 4 4 2 3 4 5 4 4 4 4 4 5 5 5 5 5 5 5 5 5 5
1 1 1 1 1 1 1 1 2 2 2 3 3 3 4 4 4 4 4 3 3 3 4 4 2 1 2 4 4 4 4 4 4 4 5 5 5 5 5 5 5 6 5 5
1 1 1 1 1 2 2 2 2 2 2 3 3 3 4 4 4 4 3 1 2 3 4 1 1 2 4 4 4 4 4 4 4 5 5 5 5 5 5 5 5 5 5 6
1 1 1 1 2 2 2 2 2 2 2 2 2 2 3 3 4 3 3 2 2 3 3 1 3 4 4 3 3 3 3 4 4 4 5 5 5 5 4 5 5 5 5 5
1 1 1 1 1 2 2 2 2 2 2 2 2 3 3 3 3 3 3 3 4 4 3 2 2 4 4 3 3 3 3 3 3 4 4 5 5 5 4 5 6 5 5 5
2 2 2 2 1 2 2 3 3 3 3 3 3 3 3 3 3 3 3 3 3 3 3 3 3 3 3 4 3 3 3 3 3 4 4 4 4 4 4 5 5 5 5 5
Wind_Direction
253 258 249 242 235 230 238 254 262 268 263 247 224 213 182 156 146 141 139 138 140 143 141 149 154 164 172 174 174 179 182 187 196 205 208 217 227 231 234 240 243 244 251 255
242 242 245 248 242 236 240 248 255 261 260 250 201 186 180 181 169 160 153 148 146 145 148 156 162 167 167 164 158 158 168 179 183 195 205 210 221 232 237 239 245 243 245 250
243 238 246 245 238 236 239 246 254 254 253 203 197 196 196 192 179 167 159 150 151 152 151 150 157 160 166 164 165 174 184 194 194 205 214 217 222 222 233 239 244 251 255 255
246 237 245 248 232 238 243 243 246 254 234 205 206 191 187 182 176 168 161 141 131 140 139 142 143 141 149 161 171 186 196 204 211 222 228 231 233 236 239 242 244 248 253 259
241 241 246 230 211 219 234 240 232 230 212 192 180 178 182 176 170 166 153 133 123 117 118 117 125 131 144 161 173 193 206 218 229 229 230 236 246 253 257 255 253 253 257 261
239 248 250 237 172 228 237 235 213 216 204 193 192 220 198 164 166 159 142 130 122 116 108 112 116 130 153 178 194 226 237 241 250 241 238 248 256 263 265 260 262 266 270 268
239 246 248 100 140 199 231 253 173 207 206 203 213 255 132 147 158 156 139 129 123 118 107 103 109 117 111 83 312 312 293 278 277 266 251 255 259 264 270 270 275 278 279 277
237 242 237 104 177 229 313 352 221 218 213 213 211 152 147 156 158 155 146 137 132 121 109 101 112 129 119 70 10 353 317 292 285 278 273 273 271 274 277 279 271 271 273 274
250 254 49 327 274 328 309 279 250 227 217 203 193 177 168 167 167 161 158 151 148 142 130 117 108 114 110 43 10 352 330 308 298 291 280 281 273 274 269 267 277 284 288 288
247 225 273 270 276 291 297 291 270 245 219 202 195 189 178 172 165 162 165 165 164 160 153 141 132 105 54 16 14 336 295 290 287 288 286 281 278 283 287 294 297 298 298 297
243 240 226 226 275 316 343 331 294 250 219 205 195 190 182 176 173 174 173 175 177 179 180 176 176 209 320 316 307 291 285 287 288 285 284 279 282 304 299 319 323 305 303 302
257 259 266 277 306 298 295 303 297 207 190 177 178 182 188 184 181 181 183 182 189 195 196 206 224 247 288 289 284 274 267 270 279 285 286 280 273 272 133 239 233 266 282 289
287 289 291 287 278 268 252 237 77 151 171 172 170 176 188 184 182 183 193 205 210 216 213 225 240 253 272 277 271 267 272 274 274 279 281 280 283 283 284 253 218 219 231 248
257 251 250 243 259 245 193 128 114 119 149 161 171 180 183 182 191 193 201 214 214 214 219 229 245 258 272 273 268 264 263 253 261 265 271 274 276 279 282 286 288 286 241 212
247 258 256 242 214 198 179 155 151 156 130 146 173 183 184 188 202 207 200 200 201 214 228 239 250 264 275 272 267 266 265 261 263 269 267 269 273 277 278 281 283 286 290 269
247 248 230 216 213 210 204 200 197 202 194 185 194 192 196 198 203 206 201 204 212 227 243 253 259 266 269 270 266 260 259 267 267 268 268 270 272 278 282 282 284 288 289 294
230 233 228 224 223 223 223 224 221 216 203 201 199 194 194 197 205 216 225 225 225 237 248 254 263 274 276 275 277 276 273 254 239 259 267 276 281 285 287 288 290 292 292 303
239 242 237 231 228 224 222 223 220 212 211 203 197 202 210 216 233 243 244 237 242 246 257 265 269 269 265 266 274 277 271 267 264 267 269 270 277 281 283 284 288 289 291 287
239 244 227 214 216 212 207 205 202 205 207 203 214 226 237 244 245 248 247 247 250 252 268 287 278 265 261 263 274 264 266 266 264 264 265 263 264 269 272 277 283 288 291 294
298 131 139 164 181 184 184 181 181 190 202 200 213 225 242 253 256 252 248 251 263 286 280 280 269 270 264 257 265 260 262 265 265 262 264 269 270 272 274 278 284 290 294 295
94 107 117 127 145 159 163 171 179 184 183 195 220 232 240 250 253 255 258 265 272 276 268 256 258 265 267 274 260 262 262 264 267 268 265 267 274 279 280 281 284 288 291 294
124 118 109 106 134 141 153 180 185 189 203 219 235 243 247 251 254 257 257 270 273 260 260 265 268 300 309 289 270 274 277 280 279 277 273 272 274 279 283 285 285 285 286 289
170 169 199 219 168 191 194 206 213 220 230 239 245 250 256 265 268 271 273 270 270 275 278 285 330 41 287 269 273 276 281 286 286 283 281 281 283 285 285 287 289 288 287 290
222 238 239 237 213 207 218 228 233 236 241 246 248 257 266 268 268 268 283 232 237 260 278 320 136 237 253 261 274 281 285 284 283 284 284 283 283 282 284 286 290 293 291 288
207 212 219 233 230 224 224 233 228 225 238 252 256 252 263 276 281 286 283 271 261 261 274 221 195 235 253 267 273 278 279 280 286 292 292 290 286 284 283 286 289 289 289 288
193 208 231 269 288 277 261 251 257 268 273 271 272 276 282 280 275 274 268 261 259 259 264 263 243 233 251 265 266 268 274 278 277 278 287 290 286 286 291 296 296 296 296 293
198 202 212 234 250 265 276 273 271 274 279 283 288 291 286 285 288 288 283 276 265 257 258 261 263 260 265 268 268 268 272 279 278 281 284 283 286 290 295 297 297 297 296 293
Height
1488 1486 1487 1489 1492 1494 1496 1494 1497 1494 1494 1495 1499 1504 1507 1510 1512 1513 1514 1515 1516 1518 1519 1520 1522 1523 1524 1524 1525 1526 1527 1528 1529 1529 1530 1530 1530 1530 1530 1530 1530 1529 1529 1529
1493 1488 1488 1490 1488 1490 1492 1491 1491 1492 1494 1493 1499 1503 1507 1509 1511 1512 1513 1514 1515 1516 1518 1518 1519 1521 1522 1522 1523 1524 1525 1526 1527 1527 1528 1528 1528 1527 1527 1527 1527 1526 1526 1525
1493 1487 1490 1493 1486 1487 1488 1488 1490 1492 1493 1495 1499 1502 1505 1508 1509 1511 1512 1513 1514 1515 1516 1517 1518 1519 1520 1521 1522 1522 1523 1524 1525 1525 1525 1525 1525 1525 1524 1524 1523 1523 1522 1522
1490 1495 1506 1486 1482 1483 1487 1488 1489 1490 1493 1496 1499 1503 1505 1507 1508 1509 1511 1512 1512 1513 1515 1516 1517 1517 1518 1519 1520 1521 1521 1522 1522 1523 1523 1522 1522 1522 1521 1521 1520 1520 1519 1519
1490 1493 1489 1484 1483 1485 1488 1488 1488 1490 1493 1497 1499 1502 1504 1505 1507 1508 1509 1510 1511 1512 1513 1514 1515 1516 1516 1517 1518 1518 1519 1519 1519 1519 1519 1519 1519 1518 1517 1517 1517 1516 1516 1514
1490 1495 1495 1483 1482 1486 1488 1490 1489 1491 1493 1496 1498 1497 1499 1503 1505 1507 1508 1509 1510 1511 1512 1512 1513 1514 1514 1515 1515 1516 1516 1516 1516 1516 1516 1516 1516 1515 1514 1514 1513 1513 1512 1511
1489 1490 1481 1482 1485 1488 1493 1489 1489 1491 1493 1495 1496 1496 1500 1502 1504 1506 1506 1507 1508 1510 1510 1511 1511 1512 1512 1513 1513 1514 1514 1514 1513 1513 1513 1513 1512 1512 1511 1511 1510 1510 1508 1507
1486 1489 1486 1486 1486 1487 1488 1490 1490 1491 1493 1495 1496 1498 1499 1501 1503 1504 1505 1506 1507 1508 1509 1509 1509 1510 1510 1510 1511 1511 1511 1511 1510 1510 1510 1510 1509 1508 1508 1507 1506 1506 1505 1504
1481 1484 1487 1488 1488 1490 1490 1490 1491 1491 1493 1494 1495 1497 1499 1501 1502 1503 1504 1505 1506 1507 1507 1507 1508 1508 1508 1508 1508 1508 1508 1508 1507 1507 1507 1506 1506 1505 1505 1504 1503 1502 1501 1500
1485 1484 1487 1489 1489 1490 1490 1491 1491 1491 1492 1493 1495 1496 1498 1499 1501 1502 1503 1504 1505 1505 1506 1506 1506 1506 1506 1506 1505 1505 1505 1505 1504 1504 1503 1503 1502 1502 1501 1500 1499 1499 1498 1497
1485 1486 1488 1489 1490 1490 1490 1491 1491 1491 1492 1493 1494 1495 1496 1498 1499 1500 1501 1502 1503 1504 1504 1504 1504 1504 1504 1503 1503 1503 1502 1502 1502 1501 1500 1499 1499 1498 1498 1497 1496 1495 1494 1494
1482 1485 1487 1488 1489 1489 1489 1489 1490 1490 1491 1492 1493 1493 1495 1496 1497 1498 1499 1500 1501 1502 1502 1502 1502 1502 1501 1501 1500 1500 1499 1499 1499 1499 1498 1497 1496 1495 1494 1494 1492 1491 1490 1489
1486 1487 1487 1488 1488 1489 1489 1489 1489 1490 1490 1491 1491 1492 1493 1494 1495 1496 1497 1498 1499 1499 1499 1500 1500 1499 1499 1499 1498 1497 1496 1496 1496 1495 1495 1494 1493 1492 1491 1490 1489 1487 1486 1484
1486 1487 1487 1487 1488 1488 1488 1488 1489 1489 1490 1490 1490 1490 1491 1492 1493 1493 1495 1496 1496 1497 1497 1497 1497 1497 1496 1496 1495 1494 1494 1493 1493 1492 1492 1491 1490 1489 1488 1487 1486 1484 1483 1481
1485 1486 1486 1486 1486 1487 1487 1487 1488 1488 1489 1489 1489 1489 1489 1490 1491 1491 1492 1493 1494 1495 1495 1495 1494 1494 1493 1493 1492 1491 1491 1490 1490 1489 1488 1488 1487 1486 1485 1484 1482 1481 1479 1478
1484 1484 1485 1485 1485 1485 1486 1486 1487 1487 1488 1488 1488 1488 1488 1489 1489 1490 1490 1491 1491 1491 1492 1491 1491 1491 1490 1490 1489 1488 1487 1486 1486 1485 1485 1484 1483 1482 1481 1480 1479 1477 1476 1474
1482 1482 1482 1483 1483 1484 1484 1485 1485 1486 1487 1487 1487 1487 1487 1487 1488 1488 1488 1488 1488 1488 1488 1488 1488 1487 1487 1486 1486 1485 1485 1483 1482 1482 1481 1480 1480 1479 1477 1476 1475 1474 1472 1471
1480 1480 1480 1481 1481 1482 1482 1483 1484 1485 1485 1486 1486 1486 1486 1486 1486 1486 1486 1486 1485 1485 1485 1485 1484 1483 1483 1482 1482 1481 1481 1480 1479 1478 1477 1476 1476 1474 1474 1472 1471 1470 1468 1467
1478 1478 1478 1479 1480 1480 1481 1482 1482 1483 1484 1484 1484 1484 1484 1484 1484 1483 1483 1483 1482 1482 1481 1481 1480 1479 1478 1478 1477 1476 1476 1475 1475 1474 1473 1472 1471 1470 1470 1468 1467 1466 1465 1464
1476 1476 1477 1477 1478 1478 1479 1480 1480 1481 1482 1482 1483 1482 1482 1482 1482 1481 1481 1481 1480 1479 1478 1477 1476 1476 1475 1474 1473 1473 1472 1471 1471 1470 1469 1468 1467 1466 1465 1465 1463 1462 1461 1460
1475 1476 1476 1476 1477 1477 1478 1478 1479 1480 1480 1481 1481 1480 1480 1480 1479 1479 1478 1478 1477 1476 1475 1474 1473 1472 1471 1470 1469 1469 1468 1468 1467 1466 1465 1464 1463 1462 1461 1461 1460 1458 1457 1456
1475 1475 1475 1476 1476 1476 1477 1477 1478 1478 1479 1479 1479 1478 1478 1477 1477 1476 1476 1475 1474 1473 1472 1471 1471 1469 1468 1467 1466 1466 1465 1464 1463 1462 1462 1461 1460 1459 1458 1457 1456 1455 1454 1453
1474 1475 1475 1475 1475 1475 1476 1476 1477 1477 1477 1477 1476 1476 1476 1475 1474 1474 1473 1473 1472 1470 1469 1469 1467 1466 1465 1464 1463 1463 1462 1461 1460 1459 1458 1457 1456 1455 1454 1453 1452 1451 1450 1449
1473 1474 1474 1474 1474 1474 1475 1475 1475 1475 1475 1475 1475 1474 1473 1473 1472 1471 1471 1469 1468 1467 1467 1465 1464 1463 1462 1461 1460 1459 1459 1458 1457 1456 1455 1453 1452 1451 1450 1449 1449 1448 1446 1445
1472 1472 1473 1473 1473 1473 1474 1474 1473 1473 1473 1473 1472 1472 1471 1470 1470 1469 1468 1467 1465 1464 1464 1462 1461 1460 1459 1459 1458 1457 1456 1455 1454 1453 1452 1451 1449 1448 1447 1446 1445 1444 1443 1441
1471 1471 1472 1472 1472 1472 1472 1472 1471 1471 1471 1471 1470 1470 1469 1468 1468 1467 1466 1465 1463 1462 1461 1460 1459 1458 1457 1456 1455 1454 1454 1453 1451 1450 1449 1448 1447 1446 1445 1443 1442 1441 1439 1438
1470 1470 1470 1470 1470 1470 1470 1470 1469 1469 1469 1469 1468 1468 1467 1466 1465 1464 1463 1462 1461 1460 1459 1458 1457 1456 1455 1454 1453 1452 1451 1450 1449 1448 1447 1446 1444 1443 1442 1440 1439 1437 1436 1434